User: anonymous   Login
Location: Unspecified
(0.0000°N, 0.0000°E)
Time: 17:25:43
(UTC+00:00)
Language:

COSMOS 1275 DEB - Orbit

View from above orbital plane
View from above orbital plane
View from above satellite
View from above satellite

Ground track
Ground track

The orbit is defined by the following mean orbital elements,

1 39056U 81053MU  25208.09842518  .00000839  00000-0  96227-3 0  9993
2 39056  82.9480 140.5698 0120821 261.8415  96.9017 13.65614297 35262
Epoch (UTC): 27 July 2025 02:21:43
Eccentricity: 0.0120821
inclination: 82.9480°
perigee height: 926 km
apogee height: 1104 km
right ascension of ascending node: 140.5698°
argument of perigee: 261.8415°
revolutions per day: 13.65614297
mean anomaly at epoch: 96.9017°

The dashed part of the orbit path shows where the satellite is in the earth's shadow,  

DLR